Probability
10 55 97 87 84 71 77 84 84 94 97 100 100 100 100 100 100 100 100 97 97 97 90 90 90 87 97 97 100 100 100 100 100 100 97 100 94 94 97 100 87 74 100
16 55 97 90 84 84 87 81 81 87 94 97 100 100 100 100 100 97 97 97 97 94 90 87 87 84 87 97 94 97 100 100 100 97 97 97 100 97 90 84 74 77 94
32 71 94 94 84 84 87 87 81 87 90 94 100 97 97 97 97 97 97 97 94 94 87 87 84 84 81 84 87 87 94 94 94 94 97 94 97 100 90 81 77 90 81
45 74 87 97 90 90 90 90 87 90 94 94 100 97 97 94 97 97 97 90 90 90 81 84 87 74 71 74 81 87 87 87 94 94 52 71 84 94 100 94 94 90 81
55 81 87 100 97 90 90 94 90 94 94 97 97 100 100 94 94 97 97 90 90 90 74 74 68 68 68 71 68 71 74 71 84 55 19 26 39 87 100 100 100 97 87
68 81 94 100 97 94 94 94 90 94 97 97 100 97 100 97 94 90 87 87 87 84 74 74 65 65 65 61 65 52 52 45 58 23 6 3 0 71 100 100 100 100 94
68 84 94 100 100 97 94 94 97 97 97 97 100 97 97 100 100 97 90 87 90 84 84 81 81 74 71 65 65 58 35 29 26 10 3 3 3 32 97 100 100 100 97
81 90 97 100 100 100 100 97 97 100 100 100 100 100 100 100 100 97 97 97 97 97 100 94 94 90 90 90 84 84 71 39 26 16 13 13 13 35 87 100 100 97 97
84 94 97 100 100 100 100 100 100 100 100 100 100 100 100 100 100 100 100 100 100 100 100 100 100 100 100 100 100 97 90 81 61 32 19 16 16 42 81 100 100 100 94
87 97 100 100 100 100 100 100 100 100 100 100 100 100 100 100 100 100 100 100 100 100 100 100 100 100 100 100 100 100 100 97 90 58 48 39 45 65 87 100 100 100 100
87 94 97 100 100 100 100 100 100 100 100 100 100 100 100 100 100 100 100 100 100 100 100 100 100 100 100 100 100 100 100 97 90 81 74 71 77 81 94 97 100 97 100
84 94 97 100 100 100 100 100 100 100 100 100 100 100 100 100 100 100 100 100 100 100 100 100 100 100 100 100 100 100 100 97 94 90 87 90 90 90 94 100 97 97 97
55 84 94 97 100 100 100 100 100 100 100 100 100 100 100 100 100 100 100 100 100 100 97 100 100 100 100 100 100 97 100 97 97 97 97 97 100 100 97 97 97 97 100
48 65 87 97 100 100 100 97 97 100 100 100 100 100 100 100 100 100 100 97 97 97 97 97 97 97 97 97 97 94 90 94 94 97 90 100 100 100 97 97 97 97 97
58 55 65 90 90 94 84 81 87 97 97 100 100 100 100 100 100 100 97 90 84 90 90 94 90 90 90 90 87 90 90 90 94 97 90 97 100 100 100 100 97 97 97
58 58 52 65 74 74 77 68 61 77 90 90 94 97 100 100 94 81 77 81 77 74 71 81 84 84 81 81 77 81 87 87 87 87 87 84 94 94 87 94 97 97 97
52 61 61 58 58 58 65 61 68 68 71 71 74 74 90 87 84 74 61 61 61 52 61 68 68 61 65 71 74 74 81 77 77 77 81 77 77 84 84 94 94 94 94
45 48 52 52 32 42 42 52 55 52 52 52 55 68 71 68 81 71 55 52 48 39 35 39 32 35 42 42 35 35 39 35 45 52 65 71 71 68 81 90 94 94 94
35 32 35 35 32 29 35 39 35 39 45 45 52 55 52 48 55 52 48 39 35 19 19 23 19 13 16 19 19 16 19 29 29 29 42 48 55 58 58 58 87 87 87
29 29 29 26 23 19 19 26 23 29 32 32 39 39 45 45 42 42 35 32 23 19 10 13 13 6 13 3 6 16 16 19 19 19 23 29 39 48 48 48 58 55 71
19 19 23 16 16 13 13 19 16 23 10 10 16 23 26 29 35 39 42 23 13 16 6 10 6 3 3 3 3 6 0 0 3 6 6 13 23 26 35 45 45 45 42
6 3 3 3 3 3 6 6 10 6 6 6 6 10 10 13 10 32 19 19 13 6 6 3 0 0 3 3 3 0 0 0 0 0 0 0 3 10 13 13 26 32 32
0 0 3 0 0 0 0 0 6 3 3 6 6 6 6 6 3 10 10 10 3 3 0 0 0 0 0 0 0 0 0 0 0 0 0 0 0 3 6 3 6 10 26
0 0 3 0 0 0 0 3 3 0 0 0 0 3 3 0 0 0 3 3 0 0 0 0 0 0 0 0 0 0 0 0 3 0 0 0 0 0 0 0 0 3 6
0 0 0 0 0 0 0 0 0 3 0 0 0 0 0 0 0 0 0 0 0 0 0 0 0 0 0 0 0 0 0 0 0 3 0 0 0 0 0 0 0 0 0
0 0 0 0 0 0 0 0 0 0 0 0 0 0 0 0 0 0 0 0 0 0 0 0 3 0 0 0 0 0 0 0 0 3 0 0 0 0 0 0 0 0 0
Height
5908 5907 5907 5906 5905 5904 5902 5901 5900 5899 5898 5897 5897 5896 5896 5896 5896 5895 5895 5894 5894 5894 5893 5893 5892 5892 5891 5891 5890 5890 5889 5889 5888 5887 5887 5886 5886 5886 5886 5886 5887 5887 5888
5908 5907 5907 5906 5905 5904 5902 5901 5899 5898 5898 5897 5897 5896 5896 5896 5895 5895 5895 5894 5894 5893 5893 5893 5892 5892 5891 5891 5890 5890 5890 5889 5889 5888 5888 5887 5887 5887 5887 5887 5888 5888 5889
5908 5907 5906 5906 5904 5903 5902 5900 5899 5898 5897 5897 5896 5896 5896 5895 5895 5894 5894 5894 5893 5893 5892 5892 5892 5891 5891 5891 5890 5890 5890 5889 5889 5889 5889 5888 5888 5888 5888 5888 5888 5889 5889
5907 5907 5906 5905 5904 5902 5901 5900 5899 5898 5897 5896 5896 5895 5895 5894 5894 5893 5893 5893 5892 5892 5891 5891 5891 5891 5891 5890 5890 5890 5889 5889 5889 5889 5889 5889 5889 5888 5888 5888 5888 5889 5890
5907 5906 5905 5904 5903 5901 5900 5899 5898 5897 5896 5895 5895 5894 5894 5893 5893 5892 5892 5891 5891 5890 5890 5890 5890 5890 5890 5889 5889 5889 5889 5889 5889 5889 5889 5889 5889 5889 5888 5888 5888 5889 5889
5905 5905 5904 5903 5901 5900 5899 5898 5897 5896 5895 5894 5893 5893 5892 5891 5891 5890 5890 5889 5889 5889 5888 5888 5888 5888 5888 5888 5888 5888 5888 5888 5888 5888 5888 5888 5888 5888 5888 5888 5888 5888 5888
5904 5904 5903 5901 5900 5899 5898 5897 5896 5895 5894 5893 5892 5891 5890 5890 5889 5888 5888 5887 5887 5886 5886 5886 5886 5886 5886 5886 5886 5886 5886 5886 5886 5886 5886 5886 5887 5887 5887 5887 5887 5887 5888
5903 5902 5901 5900 5899 5898 5897 5896 5894 5893 5892 5891 5890 5889 5888 5887 5886 5886 5885 5884 5884 5883 5883 5883 5883 5883 5883 5883 5883 5884 5883 5883 5883 5884 5884 5884 5885 5885 5885 5886 5886 5886 5887
5902 5901 5900 5899 5898 5896 5895 5894 5893 5891 5890 5889 5888 5887 5886 5885 5884 5883 5882 5881 5881 5880 5880 5880 5879 5879 5880 5880 5880 5880 5881 5881 5880 5881 5881 5882 5882 5883 5883 5884 5884 5885 5885
5900 5899 5898 5897 5896 5894 5893 5891 5890 5889 5887 5886 5885 5884 5883 5882 5880 5880 5879 5878 5877 5876 5876 5876 5875 5875 5876 5876 5876 5876 5877 5877 5877 5878 5878 5878 5879 5880 5880 5881 5882 5883 5883
5898 5897 5896 5894 5893 5891 5890 5888 5887 5885 5884 5883 5881 5880 5879 5878 5876 5875 5875 5874 5873 5872 5872 5871 5871 5871 5871 5871 5871 5872 5872 5873 5873 5874 5874 5875 5875 5876 5877 5878 5879 5880 5881
5895 5894 5892 5891 5889 5888 5886 5884 5883 5881 5880 5878 5877 5876 5875 5873 5872 5871 5870 5869 5868 5868 5867 5866 5866 5866 5866 5866 5866 5867 5867 5868 5868 5869 5870 5870 5871 5872 5873 5874 5875 5876 5877
5891 5889 5888 5886 5884 5883 5882 5880 5878 5876 5875 5873 5872 5871 5869 5868 5867 5866 5865 5864 5863 5863 5862 5861 5861 5861 5861 5861 5861 5861 5862 5862 5863 5864 5864 5865 5866 5867 5868 5869 5870 5872 5873
5886 5885 5883 5881 5879 5878 5876 5874 5872 5870 5868 5867 5865 5864 5863 5863 5862 5861 5860 5859 5858 5858 5857 5856 5856 5855 5856 5856 5856 5856 5856 5856 5857 5858 5859 5859 5860 5861 5863 5864 5865 5867 5868
5881 5879 5877 5875 5873 5871 5868 5866 5864 5863 5861 5859 5858 5857 5857 5856 5856 5855 5854 5854 5853 5852 5851 5851 5850 5850 5850 5850 5851 5851 5851 5851 5852 5853 5853 5853 5854 5855 5857 5858 5859 5861 5862
5876 5873 5871 5867 5865 5863 5860 5858 5856 5855 5853 5852 5850 5849 5849 5849 5849 5848 5848 5848 5847 5846 5845 5845 5845 5845 5845 5845 5845 5846 5846 5846 5847 5847 5847 5848 5848 5850 5851 5852 5853 5855 5856
5870 5867 5864 5860 5857 5855 5852 5849 5848 5846 5844 5843 5842 5841 5840 5840 5841 5841 5841 5841 5840 5840 5840 5839 5839 5839 5839 5840 5841 5841 5841 5841 5842 5842 5842 5843 5844 5845 5846 5847 5848 5849 5850
5863 5860 5856 5853 5849 5847 5844 5841 5838 5837 5836 5834 5834 5833 5832 5832 5832 5833 5833 5834 5833 5833 5833 5834 5834 5834 5834 5835 5835 5836 5836 5837 5837 5838 5838 5839 5840 5841 5841 5841 5843 5844 5845
5856 5852 5848 5845 5841 5837 5835 5832 5829 5828 5826 5825 5825 5825 5824 5823 5823 5825 5825 5827 5828 5827 5828 5828 5829 5829 5829 5830 5830 5831 5832 5832 5833 5834 5834 5835 5835 5836 5836 5837 5838 5839 5840
5849 5845 5842 5838 5832 5827 5826 5824 5820 5818 5815 5815 5816 5816 5815 5815 5816 5818 5819 5820 5821 5821 5822 5823 5823 5824 5825 5825 5826 5827 5827 5828 5829 5829 5830 5831 5831 5832 5832 5832 5833 5834 5835
5841 5837 5834 5831 5826 5822 5820 5817 5813 5810 5809 5808 5807 5807 5807 5808 5810 5812 5812 5813 5814 5815 5816 5817 5817 5818 5819 5820 5821 5822 5822 5823 5824 5825 5826 5826 5827 5828 5828 5828 5828 5829 5829
5834 5830 5827 5824 5821 5818 5816 5813 5809 5806 5805 5803 5801 5801 5802 5803 5804 5805 5805 5806 5807 5808 5810 5810 5811 5812 5813 5814 5815 5816 5818 5819 5820 5820 5821 5822 5823 5823 5824 5824 5824 5824 5824
5825 5822 5820 5817 5814 5811 5809 5807 5804 5801 5799 5798 5796 5795 5796 5797 5797 5798 5798 5800 5801 5802 5803 5803 5804 5806 5807 5808 5809 5811 5812 5813 5814 5816 5816 5817 5818 5819 5819 5819 5819 5819 5819
5817 5815 5813 5809 5807 5804 5802 5800 5798 5796 5794 5792 5789 5788 5789 5789 5790 5791 5792 5792 5793 5794 5795 5796 5797 5799 5800 5801 5803 5805 5806 5807 5809 5810 5811 5812 5813 5814 5814 5814 5814 5814 5814
5809 5806 5804 5801 5799 5797 5794 5792 5790 5788 5786 5785 5783 5782 5782 5782 5782 5783 5783 5784 5785 5786 5787 5788 5790 5791 5792 5794 5796 5797 5799 5801 5802 5804 5805 5806 5807 5808 5809 5809 5809 5809 5809
5801 5798 5795 5792 5790 5787 5784 5782 5780 5778 5777 5776 5774 5774 5773 5773 5773 5773 5774 5774 5775 5776 5778 5779 5780 5782 5783 5785 5787 5789 5791 5793 5795 5797 5798 5799 5801 5802 5803 5803 5804 5804 5804
Wind_Speed
4 4 5 6 6 7 7 7 7 7 7 7 7 8 8 9 9 9 9 9 9 9 9 9 9 9 9 9 9 8 8 7 8 8 8 8 7 7 6 6 5 5 6
5 5 6 7 7 8 8 7 6 6 6 6 6 6 6 7 7 7 7 7 7 7 7 7 7 7 8 7 7 7 6 6 6 6 6 6 6 6 6 5 5 5 6
7 7 8 9 9 9 8 7 6 6 6 5 5 5 6 6 6 7 7 6 6 6 6 6 6 6 6 5 5 5 5 5 4 4 4 5 5 5 5 5 5 5 5
8 9 10 11 11 10 9 8 7 7 6 6 6 7 7 7 8 8 8 7 7 7 6 6 5 5 4 4 3 3 2 2 2 2 3 3 3 4 4 5 5 5 5
10 11 12 12 11 11 10 9 8 8 8 8 8 9 9 10 10 10 9 9 9 9 8 7 6 6 5 4 3 2 2 1 0 1 1 2 2 3 3 4 4 5 4
12 12 13 12 12 11 10 10 9 10 10 10 11 11 12 12 12 12 12 11 11 11 10 10 9 8 7 6 5 5 4 4 3 2 2 2 2 2 3 3 4 4 4
13 14 14 13 12 12 12 11 11 12 12 13 13 14 15 15 15 15 15 15 14 13 13 12 12 11 10 9 9 8 7 6 6 6 5 5 4 4 4 4 4 4 4
13 14 14 14 13 13 13 13 14 14 15 15 16 16 17 17 17 17 17 17 17 16 16 15 15 14 13 13 12 11 11 10 9 9 8 7 7 7 6 6 6 5 5
13 14 14 15 15 15 15 16 17 17 17 17 18 18 19 19 19 19 19 19 19 18 18 18 18 17 16 16 15 15 14 14 13 12 12 11 10 10 9 9 8 8 7
14 15 16 16 17 18 18 19 19 20 20 20 20 20 21 21 21 20 20 20 20 20 20 20 20 19 19 19 18 18 17 17 17 16 15 14 13 13 12 12 11 11 10
15 17 18 19 20 20 21 22 22 22 22 22 21 22 22 21 22 22 21 21 20 20 20 21 21 21 20 20 20 21 20 20 20 20 20 18 17 16 16 15 14 14 13
18 20 21 22 23 24 24 24 24 24 24 24 23 23 23 23 23 23 22 22 22 21 21 20 21 21 21 22 22 22 22 22 22 22 22 22 21 20 19 19 18 17 16
21 22 23 24 25 26 27 27 27 26 25 25 25 24 24 24 24 24 23 23 23 22 21 21 22 22 22 23 23 23 23 23 23 24 23 23 23 22 22 22 21 21 19
24 25 26 27 28 29 30 30 30 29 27 27 27 26 25 25 25 25 24 24 23 22 22 22 22 22 22 23 23 23 23 23 23 24 24 24 24 24 24 25 24 24 23
25 27 29 30 30 31 32 34 34 32 31 31 29 28 26 26 26 26 25 25 24 23 23 23 23 23 23 23 23 23 22 22 22 23 24 24 24 25 24 25 26 26 26
27 29 31 32 32 33 34 36 36 36 34 32 31 30 28 27 27 27 27 26 26 24 23 23 22 22 22 22 22 22 21 21 21 21 21 21 22 23 24 24 25 26 27
29 31 32 33 34 35 35 36 37 36 34 33 32 31 30 30 29 27 27 27 26 25 23 22 22 21 21 21 21 21 20 19 18 19 19 19 19 20 21 24 25 25 26
30 32 33 34 35 36 36 35 35 35 35 35 33 32 31 31 31 28 27 25 24 23 22 22 21 20 20 19 19 18 17 17 16 16 17 18 18 18 19 21 23 25 25
32 34 34 36 36 35 35 36 35 35 36 36 36 35 33 31 29 28 26 25 24 23 22 21 20 20 19 19 18 17 17 16 16 15 15 16 17 17 18 19 20 22 24
34 35 36 38 36 35 34 35 35 35 33 33 35 34 34 32 30 29 26 24 23 22 22 21 20 20 19 18 18 17 17 16 16 15 15 15 15 16 16 17 18 20 21
36 38 38 38 37 35 33 32 31 29 29 29 30 30 30 29 30 28 24 23 22 22 22 22 21 21 21 20 19 18 18 17 16 16 15 15 15 15 14 15 16 18 20
38 39 39 39 38 35 33 33 32 30 29 27 27 27 28 27 27 25 22 22 22 22 21 22 22 22 22 21 20 20 19 18 18 16 16 15 15 15 14 14 15 16 17
39 38 39 40 38 36 35 33 31 30 29 29 28 27 27 27 27 25 24 23 23 23 22 23 23 24 24 23 22 22 21 20 20 19 18 17 16 15 15 14 15 15 16
38 38 40 39 38 38 36 34 33 33 32 32 31 28 27 27 28 29 28 27 26 26 25 25 25 25 25 25 25 24 24 23 22 21 20 18 17 17 16 16 16 16 17
36 37 39 39 39 39 38 37 37 36 35 35 34 32 32 31 31 31 31 30 30 29 28 28 28 28 28 28 28 27 27 26 25 23 22 21 20 18 17 17 17 17 17
35 37 38 40 40 41 41 42 41 40 39 39 38 37 37 37 36 36 35 34 34 34 33 33 32 31 31 31 31 31 30 29 28 27 25 24 23 21 19 18 18 18 18
Wind_Direction
331 340 347 347 347 353 2 12 24 35 42 44 42 38 33 29 27 26 26 27 29 31 32 35 38 42 44 46 50 56 60 63 67 71 74 77 81 85 93 102 108 121 132
304 318 326 327 330 336 342 351 2 13 21 26 27 23 18 13 9 9 10 10 13 17 21 25 29 33 37 40 44 49 54 59 64 72 77 79 84 92 104 114 120 130 139
297 310 315 316 319 324 329 335 343 350 356 359 359 357 353 349 346 343 344 346 349 354 358 4 11 18 23 29 36 42 49 56 62 73 84 89 91 99 114 124 129 140 149
299 307 309 310 313 316 320 325 330 333 335 335 334 331 329 326 324 322 322 323 325 327 331 335 341 349 355 2 11 21 34 50 65 80 95 105 110 114 120 130 136 143 154
302 305 305 305 308 311 313 316 319 321 321 320 318 317 316 314 312 310 309 308 309 309 311 313 313 313 315 317 319 317 313 313 328 121 135 135 140 143 145 143 144 151 159
305 304 301 299 301 303 305 307 309 310 310 309 308 307 307 306 304 303 302 300 299 299 299 299 300 298 294 291 290 289 285 278 269 258 242 228 210 188 181 176 164 159 164
304 303 299 296 296 298 299 301 303 304 304 304 304 303 302 302 301 299 297 295 293 293 292 291 292 291 289 286 282 279 276 275 270 265 259 249 243 235 223 216 203 192 187
302 299 297 296 295 297 299 300 302 302 302 301 301 300 299 297 296 294 293 292 290 288 287 286 284 284 283 282 280 278 274 271 269 267 263 258 252 246 239 235 229 219 212
300 296 296 296 295 297 299 300 301 300 300 299 299 298 296 295 293 292 291 289 287 286 284 283 282 280 279 278 277 275 273 270 267 265 263 260 256 252 247 242 240 234 226
300 297 296 296 296 296 297 298 298 297 297 296 296 296 295 294 293 292 291 288 285 283 282 281 279 278 277 276 275 274 271 268 267 265 263 260 257 255 251 246 243 240 235
298 295 293 293 293 294 295 295 295 295 294 293 294 294 294 293 292 291 290 288 285 283 281 279 277 276 275 274 273 272 273 268 265 264 263 260 257 255 253 248 246 243 239
296 294 292 290 291 292 293 292 292 291 291 290 290 291 291 291 291 290 290 289 286 284 282 280 278 275 273 271 272 273 273 271 267 265 262 260 257 254 252 249 246 246 244
296 293 289 288 290 292 290 288 288 287 286 285 285 286 287 288 288 288 289 289 287 285 283 280 277 274 271 271 272 272 272 270 268 266 265 261 259 255 251 248 247 246 245
295 292 290 289 289 289 288 285 281 280 279 278 279 281 282 283 284 286 287 286 285 283 281 279 277 274 270 269 270 271 271 270 268 267 265 263 260 256 253 250 248 247 246
296 296 294 291 289 286 285 282 278 274 273 272 272 274 276 277 279 281 283 283 282 281 279 279 278 276 272 271 271 271 271 270 268 268 266 262 260 258 256 252 251 248 246
294 293 293 291 286 284 284 279 275 273 271 269 266 268 268 269 272 275 278 279 279 278 279 280 281 279 274 271 270 269 269 270 270 271 269 265 262 260 257 254 254 251 249
292 292 291 290 286 284 285 281 276 277 273 269 268 267 266 264 266 271 274 276 275 275 277 278 278 278 273 271 272 272 271 270 273 270 267 266 263 262 261 257 254 253 253
292 293 291 290 290 288 289 286 281 276 274 272 270 264 265 263 263 267 270 273 275 275 275 275 275 274 270 268 268 268 268 267 269 268 267 268 267 267 267 264 260 257 255
293 294 293 293 291 290 292 293 290 285 279 273 271 267 265 263 262 264 268 268 270 271 270 270 268 267 264 262 262 263 263 264 265 267 269 270 269 270 271 269 266 262 260
291 294 294 295 294 295 296 295 292 286 283 274 274 271 267 264 261 263 264 268 270 268 267 265 264 263 261 258 258 257 258 260 262 264 266 269 271 272 272 272 268 264 262
290 293 293 295 297 299 300 301 300 295 291 286 277 272 271 267 264 264 265 267 267 267 264 263 261 259 257 255 254 254 254 255 258 261 264 267 270 271 272 273 272 268 264
287 289 291 292 294 297 300 301 303 301 299 296 288 279 276 268 266 267 271 268 266 264 263 261 259 256 254 251 250 250 251 253 256 259 261 263 267 268 271 272 273 271 266
285 286 289 291 293 295 297 299 301 300 299 299 294 286 277 273 270 269 270 272 267 264 262 261 259 256 252 249 248 247 249 252 254 256 259 261 265 266 267 270 273 274 272
285 285 288 290 293 293 293 295 298 298 297 296 295 288 284 278 275 273 271 272 268 265 263 261 258 256 254 250 248 247 246 248 252 255 256 259 263 266 269 271 273 276 276
287 286 287 289 290 290 290 291 292 292 292 291 290 287 283 280 276 273 270 268 266 264 263 261 259 257 254 252 249 247 246 246 248 252 255 257 259 263 269 272 273 277 279
290 289 289 289 289 289 289 289 289 288 287 287 285 283 281 278 274 272 269 266 265 263 262 261 259 257 255 253 251 249 247 246 246 248 252 256 259 261 265 270 273 275 276